ENRA Weather Reports


time (UTC)temp
C
wind
direction
speed
KPH
gust
KPH
rain 1hr
cm
rain 24hr
cm
rain mn
cm
humidity
%
barometer
mb
20260507130307 5 0 3.2 0.0 0.00 0.00 0.00 70 1016.0
20260507123308 5 0 3.2 0.0 0.00 0.00 0.00 75 1016.0
20260507120307 2 350 12.9 0.0 0.00 0.00 0.00 86 1016.0
20260507113308 2 270 19.3 0.0 0.00 0.00 0.00 86 1016.0
20260507110307 6 240 9.7 0.0 0.00 0.00 0.00 56 1015.0
20260507103307 6 270 11.3 0.0 0.00 0.00 0.00 56 1015.0
20260507100308 6 360 8.0 0.0 0.00 0.00 0.00 52 1015.0
20260507093307 5 290 11.3 0.0 0.00 0.00 0.00 60 1015.0
20260507090308 5 0 4.8 0.0 0.00 0.00 0.00 65 1014.0
20260507083307 5 0 1.6 0.0 0.00 0.00 0.00 70 1014.0
20260507080308 5 0 0.0 0.0 0.00 0.00 0.00 70 1014.0
20260507073307 5 0 0.0 0.0 0.00 0.00 0.00 75 1014.0
20260507070307 3 0 0.0 0.0 0.00 0.00 0.00 86 1014.0
20260507063307 2 0 3.2 0.0 0.00 0.00 0.00 86 1014.0
20260507053307 1 0 3.2 0.0 0.00 0.00 0.00 93 1013.0
20260507050307 0 120 3.2 0.0 0.00 0.00 0.00 10 1013.0
20260507043308 0 0 1.6 0.0 0.00 0.00 0.00 10 1013.0
20260507040308 0 130 4.8 0.0 0.00 0.00 0.00 10 1013.0
20260507033307 0 130 3.2 0.0 0.00 0.00 0.00 10 1013.0
20260507030306 0 0 0.0 0.0 0.00 0.00 0.00 10 1013.0
20260507023307 0 0 0.0 0.0 0.00 0.00 0.00 10 1013.0
20260507020307 0 120 4.8 0.0 0.00 0.00 0.00 10 1013.0
20260507013307 0 130 3.2 0.0 0.00 0.00 0.00 10 1012.0
20260507010306 0 0 0.0 0.0 0.00 0.00 0.00 10 1012.0
20260507003307 0 0 3.2 0.0 0.00 0.00 0.00 10 1012.0
20260507000307 0 0 0.0 0.0 0.00 0.00 0.00 93 1012.0
20260506233307 0 0 3.2 0.0 0.00 0.00 0.00 93 1012.0
20260506230307 0 0 0.0 0.0 0.00 0.00 0.00 93 1012.0
20260506223307 0 0 3.2 0.0 0.00 0.00 0.00 93 1012.0
20260506220307 0 130 3.2 0.0 0.00 0.00 0.00 10 1012.0
20260506213307 0 0 0.0 0.0 0.00 0.00 0.00 10 1012.0
20260506210307 0 0 3.2 0.0 0.00 0.00 0.00 10 1011.0
20260506203306 0 0 3.2 0.0 0.00 0.00 0.00 10 1011.0
20260506200306 0 140 3.2 0.0 0.00 0.00 0.00 10 1011.0
20260506193307 0 130 4.8 0.0 0.00 0.00 0.00 10 1011.0
20260506190306 1 110 4.8 0.0 0.00 0.00 0.00 93 1011.0
20260506183307 1 0 3.2 0.0 0.00 0.00 0.00 93 1011.0
20260506180307 2 10 4.8 0.0 0.00 0.00 0.00 86 1011.0
20260506173308 2 210 4.8 0.0 0.00 0.00 0.00 86 1010.0
20260506170307 3 220 4.8 0.0 0.00 0.00 0.00 75 1010.0
20260506163307 5 190 4.8 0.0 0.00 0.00 0.00 70 1010.0
20260506160307 3 270 8.0 0.0 0.00 0.00 0.00 75 1010.0
20260506153307 5 250 9.7 0.0 0.00 0.00 0.00 75 1010.0
20260506150307 5 240 9.7 0.0 0.00 0.00 0.00 70 1010.0
20260506143307 5 250 9.7 0.0 0.00 0.00 0.00 75 1009.0
20260506140307 3 300 8.0 0.0 0.00 0.00 0.00 80 1009.0
20260506133307 3 240 16.1 0.0 0.00 0.00 0.00 80 1009.0